owner,sensor,date,latitude,longitude,vertical_datum,sea_water_practical_salinity,qcFlag 
TCOON,ioos:station:TCOON:147:1,2012-04-01T00:00:00Z,28.0841,-97.2009,0.0,33.7,1111122 
TCOON,ioos:station:TCOON:147:1,2012-04-01T00:30:00Z,28.0841,-97.2009,0.0,33.6,1111122 
TCOON,ioos:station:TCOON:147:1,2012-04-01T01:00:00Z,28.0841,-97.2009,0.0,33.6,1111122 
TCOON,ioos:station:TCOON:147:1,2012-04-01T02:00:00Z,28.0841,-97.2009,0.0,33.6,1111122 
TCOON,ioos:station:TCOON:147:1,2012-04-01T02:30:00Z,28.0841,-97.2009,0.0,33.6,1111122 
TCOON,ioos:station:TCOON:147:1,2012-04-01T03:30:00Z,28.0841,-97.2009,0.0,33.6,1111122 
TCOON,ioos:station:TCOON:147:1,2012-04-01T04:00:00Z,28.0841,-97.2009,0.0,33.6,1111122 
TCOON,ioos:station:TCOON:147:1,2012-04-01T05:00:00Z,28.0841,-97.2009,0.0,33.5,1111122 
TCOON,ioos:station:TCOON:147:1,2012-04-01T05:30:00Z,28.0841,-97.2009,0.0,33.5,1111122 
TCOON,ioos:station:TCOON:147:1,2012-04-01T07:00:00Z,28.0841,-97.2009,0.0,33.6,1111122 
TCOON,ioos:station:TCOON:147:1,2012-04-01T07:30:00Z,28.0841,-97.2009,0.0,33.6,1111122 
TCOON,ioos:station:TCOON:147:1,2012-04-01T08:30:00Z,28.0841,-97.2009,0.0,33.5,1111122 
TCOON,ioos:station:TCOON:147:1,2012-04-01T13:00:00Z,28.0841,-97.2009,0.0,33.4,1111122 
TCOON,ioos:station:TCOON:147:1,2012-04-01T14:00:00Z,28.0841,-97.2009,0.0,32.6,1111122 
TCOON,ioos:station:TCOON:147:1,2012-04-01T14:30:00Z,28.0841,-97.2009,0.0,32.9,1111122 
TCOON,ioos:station:TCOON:147:1,2012-04-01T15:00:00Z,28.0841,-97.2009,0.0,33.3,1111122 
TCOON,ioos:station:TCOON:147:1,2012-04-01T15:30:00Z,28.0841,-97.2009,0.0,33.3,1111122 
TCOON,ioos:station:TCOON:147:1,2012-04-01T16:00:00Z,28.0841,-97.2009,0.0,33.3,1111122 
TCOON,ioos:station:TCOON:147:1,2012-04-01T16:30:00Z,28.0841,-97.2009,0.0,33.3,1111122 
TCOON,ioos:station:TCOON:147:1,2012-04-01T17:00:00Z,28.0841,-97.2009,0.0,33.3,1111122 
TCOON,ioos:station:TCOON:147:1,2012-04-01T17:30:00Z,28.0841,-97.2009,0.0,33.3,1111122 
TCOON,ioos:station:TCOON:147:1,2012-04-01T18:00:00Z,28.0841,-97.2009,0.0,33.4,1111122 
TCOON,ioos:station:TCOON:147:1,2012-04-01T18:30:00Z,28.0841,-97.2009,0.0,33.4,1111122 
TCOON,ioos:station:TCOON:147:1,2012-04-01T19:00:00Z,28.0841,-97.2009,0.0,33.4,1111122 
TCOON,ioos:station:TCOON:147:1,2012-04-01T20:00:00Z,28.0841,-97.2009,0.0,33.4,1111122 
TCOON,ioos:station:TCOON:147:1,2012-04-01T21:00:00Z,28.0841,-97.2009,0.0,33.5,1111122 
TCOON,ioos:station:TCOON:147:1,2012-04-01T22:00:00Z,28.0841,-97.2009,0.0,33.5,1111122 
TCOON,ioos:station:TCOON:147:1,2012-04-01T22:30:00Z,28.0841,-97.2009,0.0,33.5,1111122 
TCOON,ioos:station:TCOON:147:1,2012-04-01T23:00:00Z,28.0841,-97.2009,0.0,33.5,1111122 
TCOON,ioos:station:TCOON:147:1,2012-04-02T00:00:00Z,28.0841,-97.2009,0.0,33.6,1111122 
TCOON,ioos:station:TCOON:147:1,2012-04-02T01:00:00Z,28.0841,-97.2009,0.0,33.8,1111122 
TCOON,ioos:station:TCOON:147:1,2012-04-02T01:30:00Z,28.0841,-97.2009,0.0,33.8,1111122 
TCOON,ioos:station:TCOON:147:1,2012-04-02T02:00:00Z,28.0841,-97.2009,0.0,33.8,1111122 
TCOON,ioos:station:TCOON:147:1,2012-04-02T02:30:00Z,28.0841,-97.2009,0.0,33.9,1111122 
TCOON,ioos:station:TCOON:147:1,2012-04-02T03:00:00Z,28.0841,-97.2009,0.0,33.9,1111122 
TCOON,ioos:station:TCOON:147:1,2012-04-02T03:30:00Z,28.0841,-97.2009,0.0,34.0,1111122 
TCOON,ioos:station:TCOON:147:1,2012-04-02T04:30:00Z,28.0841,-97.2009,0.0,34.0,1111122 
TCOON,ioos:station:TCOON:147:1,2012-04-02T05:00:00Z,28.0841,-97.2009,0.0,34.1,1111122 
TCOON,ioos:station:TCOON:147:1,2012-04-02T05:30:00Z,28.0841,-97.2009,0.0,34.1,1111122 
TCOON,ioos:station:TCOON:147:1,2012-04-02T06:00:00Z,28.0841,-97.2009,0.0,33.4,1111122 
TCOON,ioos:station:TCOON:147:1,2012-04-02T06:30:00Z,28.0841,-97.2009,0.0,34.2,1111122 
TCOON,ioos:station:TCOON:147:1,2012-04-02T07:00:00Z,28.0841,-97.2009,0.0,34.1,1111122 
TCOON,ioos:station:TCOON:147:1,2012-04-02T07:30:00Z,28.0841,-97.2009,0.0,34.2,1111122 
TCOON,ioos:station:TCOON:147:1,2012-04-02T08:00:00Z,28.0841,-97.2009,0.0,34.2,1111122 
TCOON,ioos:station:TCOON:147:1,2012-04-02T08:30:00Z,28.0841,-97.2009,0.0,34.2,1111122 
TCOON,ioos:station:TCOON:147:1,2012-04-02T09:00:00Z,28.0841,-97.2009,0.0,34.2,1111122 
TCOON,ioos:station:TCOON:147:1,2012-04-02T09:30:00Z,28.0841,-97.2009,0.0,34.2,1111122 
TCOON,ioos:station:TCOON:147:1,2012-04-02T10:00:00Z,28.0841,-97.2009,0.0,34.2,1111122 
TCOON,ioos:station:TCOON:147:1,2012-04-02T10:30:00Z,28.0841,-97.2009,0.0,34.2,1111122 
TCOON,ioos:station:TCOON:147:1,2012-04-02T11:00:00Z,28.0841,-97.2009,0.0,34.3,1111122 
TCOON,ioos:station:TCOON:147:1,2012-04-02T12:00:00Z,28.0841,-97.2009,0.0,34.3,1111122 
TCOON,ioos:station:TCOON:147:1,2012-04-02T12:30:00Z,28.0841,-97.2009,0.0,34.3,1111122 
TCOON,ioos:station:TCOON:147:1,2012-04-02T13:00:00Z,28.0841,-97.2009,0.0,34.3,1111122 
TCOON,ioos:station:TCOON:147:1,2012-04-02T13:30:00Z,28.0841,-97.2009,0.0,33.4,1111122 
TCOON,ioos:station:TCOON:147:1,2012-04-02T14:00:00Z,28.0841,-97.2009,0.0,34.3,1111122 
TCOON,ioos:station:TCOON:147:1,2012-04-02T14:30:00Z,28.0841,-97.2009,0.0,33.9,1111122 
TCOON,ioos:station:TCOON:147:1,2012-04-02T15:00:00Z,28.0841,-97.2009,0.0,34.3,1111122 
TCOON,ioos:station:TCOON:147:1,2012-04-02T15:30:00Z,28.0841,-97.2009,0.0,33.3,1111122 
TCOON,ioos:station:TCOON:147:1,2012-04-02T16:00:00Z,28.0841,-97.2009,0.0,34.3,1111122 
TCOON,ioos:station:TCOON:147:1,2012-04-02T16:30:00Z,28.0841,-97.2009,0.0,34.3,1111122 
TCOON,ioos:station:TCOON:147:1,2012-04-02T17:00:00Z,28.0841,-97.2009,0.0,34.2,1111122 
TCOON,ioos:station:TCOON:147:1,2012-04-02T17:30:00Z,28.0841,-97.2009,0.0,33.3,1111122 
TCOON,ioos:station:TCOON:147:1,2012-04-02T18:00:00Z,28.0841,-97.2009,0.0,34.2,1111122 
TCOON,ioos:station:TCOON:147:1,2012-04-02T19:00:00Z,28.0841,-97.2009,0.0,34.3,1111122 
TCOON,ioos:station:TCOON:147:1,2012-04-02T19:30:00Z,28.0841,-97.2009,0.0,34.3,1111122 
TCOON,ioos:station:TCOON:147:1,2012-04-02T20:00:00Z,28.0841,-97.2009,0.0,34.3,1111122 
TCOON,ioos:station:TCOON:147:1,2012-04-02T20:30:00Z,28.0841,-97.2009,0.0,34.3,1111122 
TCOON,ioos:station:TCOON:147:1,2012-04-02T21:00:00Z,28.0841,-97.2009,0.0,34.3,1111122 
TCOON,ioos:station:TCOON:147:1,2012-04-02T21:30:00Z,28.0841,-97.2009,0.0,34.2,1111122 
TCOON,ioos:station:TCOON:147:1,2012-04-02T22:00:00Z,28.0841,-97.2009,0.0,34.3,1111122 
TCOON,ioos:station:TCOON:147:1,2012-04-02T23:00:00Z,28.0841,-97.2009,0.0,34.3,1111122 
TCOON,ioos:station:TCOON:147:1,2012-04-03T00:00:00Z,28.0841,-97.2009,0.0,34.3,1111122 
TCOON,ioos:station:TCOON:147:1,2012-04-03T01:00:00Z,28.0841,-97.2009,0.0,34.3,1111122 
TCOON,ioos:station:TCOON:147:1,2012-04-03T01:30:00Z,28.0841,-97.2009,0.0,33.7,1111122 
TCOON,ioos:station:TCOON:147:1,2012-04-03T02:00:00Z,28.0841,-97.2009,0.0,34.3,1111122 
TCOON,ioos:station:TCOON:147:1,2012-04-03T02:30:00Z,28.0841,-97.2009,0.0,34.3,1111122 
TCOON,ioos:station:TCOON:147:1,2012-04-03T03:00:00Z,28.0841,-97.2009,0.0,34.3,1111122 
TCOON,ioos:station:TCOON:147:1,2012-04-03T04:00:00Z,28.0841,-97.2009,0.0,34.2,1111122 
TCOON,ioos:station:TCOON:147:1,2012-04-03T05:00:00Z,28.0841,-97.2009,0.0,34.2,1111122 
TCOON,ioos:station:TCOON:147:1,2012-04-03T06:00:00Z,28.0841,-97.2009,0.0,34.2,1111122 
TCOON,ioos:station:TCOON:147:1,2012-04-03T07:00:00Z,28.0841,-97.2009,0.0,34.3,1111122 
TCOON,ioos:station:TCOON:147:1,2012-04-03T08:00:00Z,28.0841,-97.2009,0.0,34.2,1111122 
TCOON,ioos:station:TCOON:147:1,2012-04-03T09:00:00Z,28.0841,-97.2009,0.0,34.2,1111122 
TCOON,ioos:station:TCOON:147:1,2012-04-03T09:30:00Z,28.0841,-97.2009,0.0,34.2,1111122 
TCOON,ioos:station:TCOON:147:1,2012-04-03T10:00:00Z,28.0841,-97.2009,0.0,34.3,1111122 
TCOON,ioos:station:TCOON:147:1,2012-04-03T10:30:00Z,28.0841,-97.2009,0.0,34.2,1111122 
TCOON,ioos:station:TCOON:147:1,2012-04-03T11:00:00Z,28.0841,-97.2009,0.0,33.9,1111122 
TCOON,ioos:station:TCOON:147:1,2012-04-03T11:30:00Z,28.0841,-97.2009,0.0,33.7,1111122 
TCOON,ioos:station:TCOON:147:1,2012-04-03T12:00:00Z,28.0841,-97.2009,0.0,33.9,1111122 
TCOON,ioos:station:TCOON:147:1,2012-04-03T12:30:00Z,28.0841,-97.2009,0.0,33.6,1111122 
TCOON,ioos:station:TCOON:147:1,2012-04-03T13:00:00Z,28.0841,-97.2009,0.0,33.8,1111122 
TCOON,ioos:station:TCOON:147:1,2012-04-03T14:00:00Z,28.0841,-97.2009,0.0,34.3,1111122 
TCOON,ioos:station:TCOON:147:1,2012-04-03T15:00:00Z,28.0841,-97.2009,0.0,34.3,1111122 
TCOON,ioos:station:TCOON:147:1,2012-04-03T16:00:00Z,28.0841,-97.2009,0.0,34.3,1111122 
TCOON,ioos:station:TCOON:147:1,2012-04-03T16:30:00Z,28.0841,-97.2009,0.0,34.3,1111122 
TCOON,ioos:station:TCOON:147:1,2012-04-03T17:30:00Z,28.0841,-97.2009,0.0,34.3,1111122 
TCOON,ioos:station:TCOON:147:1,2012-04-03T18:00:00Z,28.0841,-97.2009,0.0,34.2,1111122 
TCOON,ioos:station:TCOON:147:1,2012-04-03T18:30:00Z,28.0841,-97.2009,0.0,33.7,1111122 
TCOON,ioos:station:TCOON:147:1,2012-04-03T19:00:00Z,28.0841,-97.2009,0.0,33.4,1111122 
TCOON,ioos:station:TCOON:147:1,2012-04-03T19:30:00Z,28.0841,-97.2009,0.0,33.7,1111122 
TCOON,ioos:station:TCOON:147:1,2012-04-03T20:00:00Z,28.0841,-97.2009,0.0,33.4,1111122 
TCOON,ioos:station:TCOON:147:1,2012-04-03T20:30:00Z,28.0841,-97.2009,0.0,33.3,1111122 
TCOON,ioos:station:TCOON:147:1,2012-04-03T21:00:00Z,28.0841,-97.2009,0.0,33.4,1111122 
TCOON,ioos:station:TCOON:147:1,2012-04-03T22:00:00Z,28.0841,-97.2009,0.0,33.1,1111122 
TCOON,ioos:station:TCOON:147:1,2012-04-03T23:00:00Z,28.0841,-97.2009,0.0,33.3,1111122 
TCOON,ioos:station:TCOON:147:1,2012-04-04T00:00:00Z,28.0841,-97.2009,0.0,34.2,1111122 
TCOON,ioos:station:TCOON:147:1,2012-04-04T01:00:00Z,28.0841,-97.2009,0.0,34.2,1111122 
TCOON,ioos:station:TCOON:147:1,2012-04-04T01:30:00Z,28.0841,-97.2009,0.0,34.2,1111122 
TCOON,ioos:station:TCOON:147:1,2012-04-04T02:00:00Z,28.0841,-97.2009,0.0,34.2,1111122 
TCOON,ioos:station:TCOON:147:1,2012-04-04T03:00:00Z,28.0841,-97.2009,0.0,34.2,1111122 
TCOON,ioos:station:TCOON:147:1,2012-04-04T04:00:00Z,28.0841,-97.2009,0.0,34.2,1111122 
TCOON,ioos:station:TCOON:147:1,2012-04-04T04:30:00Z,28.0841,-97.2009,0.0,34.2,1111122 
TCOON,ioos:station:TCOON:147:1,2012-04-04T05:30:00Z,28.0841,-97.2009,0.0,34.2,1111122 
TCOON,ioos:station:TCOON:147:1,2012-04-04T11:00:00Z,28.0841,-97.2009,0.0,34.3,1111122 
TCOON,ioos:station:TCOON:147:1,2012-04-04T11:30:00Z,28.0841,-97.2009,0.0,34.3,1111122 
TCOON,ioos:station:TCOON:147:1,2012-04-04T12:00:00Z,28.0841,-97.2009,0.0,34.3,1111122 
TCOON,ioos:station:TCOON:147:1,2012-04-04T20:30:00Z,28.0841,-97.2009,0.0,34.6,1111122 
TCOON,ioos:station:TCOON:147:1,2012-04-05T00:00:00Z,28.0841,-97.2009,0.0,34.6,1111122 
TCOON,ioos:station:TCOON:147:1,2012-04-05T00:30:00Z,28.0841,-97.2009,0.0,34.5,1111122 
TCOON,ioos:station:TCOON:147:1,2012-04-05T01:00:00Z,28.0841,-97.2009,0.0,34.5,1111122 
TCOON,ioos:station:TCOON:147:1,2012-04-05T01:30:00Z,28.0841,-97.2009,0.0,34.5,1111122 
TCOON,ioos:station:TCOON:147:1,2012-04-05T02:00:00Z,28.0841,-97.2009,0.0,34.5,1111122 
TCOON,ioos:station:TCOON:147:1,2012-04-05T02:30:00Z,28.0841,-97.2009,0.0,34.5,1111122 
TCOON,ioos:station:TCOON:147:1,2012-04-05T03:00:00Z,28.0841,-97.2009,0.0,34.4,1111122 
TCOON,ioos:station:TCOON:147:1,2012-04-05T03:30:00Z,28.0841,-97.2009,0.0,34.4,1111122 
TCOON,ioos:station:TCOON:147:1,2012-04-05T04:00:00Z,28.0841,-97.2009,0.0,34.4,1111122 
TCOON,ioos:station:TCOON:147:1,2012-04-05T04:30:00Z,28.0841,-97.2009,0.0,34.4,1111122 
TCOON,ioos:station:TCOON:147:1,2012-04-05T05:00:00Z,28.0841,-97.2009,0.0,34.4,1111122 
TCOON,ioos:station:TCOON:147:1,2012-04-05T05:30:00Z,28.0841,-97.2009,0.0,34.4,1111122 
TCOON,ioos:station:TCOON:147:1,2012-04-05T06:00:00Z,28.0841,-97.2009,0.0,34.4,1111122 
TCOON,ioos:station:TCOON:147:1,2012-04-05T06:30:00Z,28.0841,-97.2009,0.0,34.4,1111122 
TCOON,ioos:station:TCOON:147:1,2012-04-05T07:00:00Z,28.0841,-97.2009,0.0,34.4,1111122 
TCOON,ioos:station:TCOON:147:1,2012-04-05T08:00:00Z,28.0841,-97.2009,0.0,34.1,1111122 
TCOON,ioos:station:TCOON:147:1,2012-04-05T08:30:00Z,28.0841,-97.2009,0.0,34.1,1111122 
TCOON,ioos:station:TCOON:147:1,2012-04-05T09:00:00Z,28.0841,-97.2009,0.0,34.3,1111122 
TCOON,ioos:station:TCOON:147:1,2012-04-05T09:30:00Z,28.0841,-97.2009,0.0,34.2,1111122 
TCOON,ioos:station:TCOON:147:1,2012-04-05T10:30:00Z,28.0841,-97.2009,0.0,34.0,1111122 
TCOON,ioos:station:TCOON:147:1,2012-04-05T11:00:00Z,28.0841,-97.2009,0.0,33.8,1111122 
TCOON,ioos:station:TCOON:147:1,2012-04-05T14:00:00Z,28.0841,-97.2009,0.0,33.5,1111122 
TCOON,ioos:station:TCOON:147:1,2012-04-05T15:30:00Z,28.0841,-97.2009,0.0,33.5,1111122 
TCOON,ioos:station:TCOON:147:1,2012-04-05T16:00:00Z,28.0841,-97.2009,0.0,33.6,1111122 
TCOON,ioos:station:TCOON:147:1,2012-04-05T16:30:00Z,28.0841,-97.2009,0.0,33.6,1111122 
TCOON,ioos:station:TCOON:147:1,2012-04-05T17:00:00Z,28.0841,-97.2009,0.0,33.6,1111122 
TCOON,ioos:station:TCOON:147:1,2012-04-05T18:00:00Z,28.0841,-97.2009,0.0,33.7,1111122 
TCOON,ioos:station:TCOON:147:1,2012-04-05T18:30:00Z,28.0841,-97.2009,0.0,33.7,1111122 
TCOON,ioos:station:TCOON:147:1,2012-04-05T19:30:00Z,28.0841,-97.2009,0.0,33.9,1111122 
TCOON,ioos:station:TCOON:147:1,2012-04-05T20:00:00Z,28.0841,-97.2009,0.0,33.9,1111122 
TCOON,ioos:station:TCOON:147:1,2012-04-05T21:00:00Z,28.0841,-97.2009,0.0,34.1,1111122 
TCOON,ioos:station:TCOON:147:1,2012-04-05T22:30:00Z,28.0841,-97.2009,0.0,33.9,1111122 
TCOON,ioos:station:TCOON:147:1,2012-04-05T23:00:00Z,28.0841,-97.2009,0.0,33.9,1111122 
TCOON,ioos:station:TCOON:147:1,2012-04-06T01:00:00Z,28.0841,-97.2009,0.0,33.9,1111122 
TCOON,ioos:station:TCOON:147:1,2012-04-06T01:30:00Z,28.0841,-97.2009,0.0,33.9,1111122 
TCOON,ioos:station:TCOON:147:1,2012-04-06T02:30:00Z,28.0841,-97.2009,0.0,33.9,1111122 
TCOON,ioos:station:TCOON:147:1,2012-04-06T04:30:00Z,28.0841,-97.2009,0.0,33.9,1111122 
TCOON,ioos:station:TCOON:147:1,2012-04-06T06:00:00Z,28.0841,-97.2009,0.0,33.9,1111122 
TCOON,ioos:station:TCOON:147:1,2012-04-06T13:00:00Z,28.0841,-97.2009,0.0,34.0,1111122 
TCOON,ioos:station:TCOON:147:1,2012-04-06T14:00:00Z,28.0841,-97.2009,0.0,33.9,1111122 
TCOON,ioos:station:TCOON:147:1,2012-04-06T14:30:00Z,28.0841,-97.2009,0.0,33.9,1111122 
TCOON,ioos:station:TCOON:147:1,2012-04-06T15:00:00Z,28.0841,-97.2009,0.0,33.9,1111122 
TCOON,ioos:station:TCOON:147:1,2012-04-06T16:00:00Z,28.0841,-97.2009,0.0,33.8,1111122 
TCOON,ioos:station:TCOON:147:1,2012-04-06T16:30:00Z,28.0841,-97.2009,0.0,33.9,1111122 
TCOON,ioos:station:TCOON:147:1,2012-04-06T17:00:00Z,28.0841,-97.2009,0.0,33.8,1111122 
TCOON,ioos:station:TCOON:147:1,2012-04-06T17:30:00Z,28.0841,-97.2009,0.0,33.8,1111122 
TCOON,ioos:station:TCOON:147:1,2012-04-06T18:00:00Z,28.0841,-97.2009,0.0,33.8,1111122 
TCOON,ioos:station:TCOON:147:1,2012-04-06T18:30:00Z,28.0841,-97.2009,0.0,33.7,1111122 
TCOON,ioos:station:TCOON:147:1,2012-04-06T19:00:00Z,28.0841,-97.2009,0.0,33.6,1111122 
TCOON,ioos:station:TCOON:147:1,2012-04-06T20:00:00Z,28.0841,-97.2009,0.0,33.6,1111122 
TCOON,ioos:station:TCOON:147:1,2012-04-06T21:00:00Z,28.0841,-97.2009,0.0,32.9,1111122 
TCOON,ioos:station:TCOON:147:1,2012-04-06T22:00:00Z,28.0841,-97.2009,0.0,33.3,1111122 
TCOON,ioos:station:TCOON:147:1,2012-04-06T23:00:00Z,28.0841,-97.2009,0.0,32.7,1111122 
TCOON,ioos:station:TCOON:147:1,2012-04-07T00:00:00Z,28.0841,-97.2009,0.0,33.3,1111122 
TCOON,ioos:station:TCOON:147:1,2012-04-07T01:00:00Z,28.0841,-97.2009,0.0,33.5,1111122 
TCOON,ioos:station:TCOON:147:1,2012-04-07T01:30:00Z,28.0841,-97.2009,0.0,33.5,1111122 
TCOON,ioos:station:TCOON:147:1,2012-04-07T02:00:00Z,28.0841,-97.2009,0.0,32.9,1111122 
TCOON,ioos:station:TCOON:147:1,2012-04-07T03:00:00Z,28.0841,-97.2009,0.0,32.7,1111122 
TCOON,ioos:station:TCOON:147:1,2012-04-07T04:00:00Z,28.0841,-97.2009,0.0,33.4,1111122 
TCOON,ioos:station:TCOON:147:1,2012-04-07T04:30:00Z,28.0841,-97.2009,0.0,33.3,1111122 
TCOON,ioos:station:TCOON:147:1,2012-04-07T05:00:00Z,28.0841,-97.2009,0.0,33.3,1111122 
TCOON,ioos:station:TCOON:147:1,2012-04-07T05:30:00Z,28.0841,-97.2009,0.0,33.4,1111122 
TCOON,ioos:station:TCOON:147:1,2012-04-07T06:00:00Z,28.0841,-97.2009,0.0,33.4,1111122 
TCOON,ioos:station:TCOON:147:1,2012-04-07T06:30:00Z,28.0841,-97.2009,0.0,33.4,1111122 
TCOON,ioos:station:TCOON:147:1,2012-04-07T07:00:00Z,28.0841,-97.2009,0.0,33.3,1111122 
TCOON,ioos:station:TCOON:147:1,2012-04-07T08:00:00Z,28.0841,-97.2009,0.0,33.3,1111122 
TCOON,ioos:station:TCOON:147:1,2012-04-07T08:30:00Z,28.0841,-97.2009,0.0,33.3,1111122 
TCOON,ioos:station:TCOON:147:1,2012-04-07T09:00:00Z,28.0841,-97.2009,0.0,33.3,1111122 
TCOON,ioos:station:TCOON:147:1,2012-04-07T10:00:00Z,28.0841,-97.2009,0.0,33.3,1111122 
TCOON,ioos:station:TCOON:147:1,2012-04-07T11:00:00Z,28.0841,-97.2009,0.0,32.3,1111122 
TCOON,ioos:station:TCOON:147:1,2012-04-07T12:00:00Z,28.0841,-97.2009,0.0,32.2,1111122 
TCOON,ioos:station:TCOON:147:1,2012-04-07T13:00:00Z,28.0841,-97.2009,0.0,33.2,1111122 
TCOON,ioos:station:TCOON:147:1,2012-04-07T13:30:00Z,28.0841,-97.2009,0.0,32.7,1111122 
TCOON,ioos:station:TCOON:147:1,2012-04-07T14:00:00Z,28.0841,-97.2009,0.0,33.2,1111122 
TCOON,ioos:station:TCOON:147:1,2012-04-07T14:30:00Z,28.0841,-97.2009,0.0,33.3,1111122 
TCOON,ioos:station:TCOON:147:1,2012-04-07T15:00:00Z,28.0841,-97.2009,0.0,33.2,1111122 
TCOON,ioos:station:TCOON:147:1,2012-04-07T15:30:00Z,28.0841,-97.2009,0.0,31.9,1111122 
TCOON,ioos:station:TCOON:147:1,2012-04-07T16:00:00Z,28.0841,-97.2009,0.0,33.0,1111122 
TCOON,ioos:station:TCOON:147:1,2012-04-07T16:30:00Z,28.0841,-97.2009,0.0,33.0,1111122 
TCOON,ioos:station:TCOON:147:1,2012-04-07T17:00:00Z,28.0841,-97.2009,0.0,33.0,1111122 
TCOON,ioos:station:TCOON:147:1,2012-04-07T17:30:00Z,28.0841,-97.2009,0.0,32.3,1111122 
TCOON,ioos:station:TCOON:147:1,2012-04-07T18:00:00Z,28.0841,-97.2009,0.0,32.5,1111122 
TCOON,ioos:station:TCOON:147:1,2012-04-07T18:30:00Z,28.0841,-97.2009,0.0,32.7,1111122 
TCOON,ioos:station:TCOON:147:1,2012-04-07T19:00:00Z,28.0841,-97.2009,0.0,32.7,1111122 
TCOON,ioos:station:TCOON:147:1,2012-04-07T19:30:00Z,28.0841,-97.2009,0.0,32.8,1111122 
TCOON,ioos:station:TCOON:147:1,2012-04-07T20:00:00Z,28.0841,-97.2009,0.0,32.8,1111122 
TCOON,ioos:station:TCOON:147:1,2012-04-07T21:30:00Z,28.0841,-97.2009,0.0,32.7,1111122 
TCOON,ioos:station:TCOON:147:1,2012-04-07T22:00:00Z,28.0841,-97.2009,0.0,32.6,1111122 
TCOON,ioos:station:TCOON:147:1,2012-04-07T22:30:00Z,28.0841,-97.2009,0.0,32.8,1111122 
TCOON,ioos:station:TCOON:147:1,2012-04-07T23:00:00Z,28.0841,-97.2009,0.0,32.7,1111122 
TCOON,ioos:station:TCOON:147:1,2012-04-07T23:30:00Z,28.0841,-97.2009,0.0,31.6,1111122 
TCOON,ioos:station:TCOON:147:1,2012-04-08T00:00:00Z,28.0841,-97.2009,0.0,32.4,1111122 
TCOON,ioos:station:TCOON:147:1,2012-04-08T00:30:00Z,28.0841,-97.2009,0.0,32.9,1111122 
TCOON,ioos:station:TCOON:147:1,2012-04-08T01:00:00Z,28.0841,-97.2009,0.0,32.9,1111122 
TCOON,ioos:station:TCOON:147:1,2012-04-08T01:30:00Z,28.0841,-97.2009,0.0,32.9,1111122 
TCOON,ioos:station:TCOON:147:1,2012-04-08T02:00:00Z,28.0841,-97.2009,0.0,33.0,1111122 
TCOON,ioos:station:TCOON:147:1,2012-04-08T03:00:00Z,28.0841,-97.2009,0.0,33.0,1111122 
TCOON,ioos:station:TCOON:147:1,2012-04-08T03:30:00Z,28.0841,-97.2009,0.0,33.1,1111122 
TCOON,ioos:station:TCOON:147:1,2012-04-08T04:00:00Z,28.0841,-97.2009,0.0,33.1,1111122 
TCOON,ioos:station:TCOON:147:1,2012-04-08T04:30:00Z,28.0841,-97.2009,0.0,33.2,1111122 
TCOON,ioos:station:TCOON:147:1,2012-04-08T05:00:00Z,28.0841,-97.2009,0.0,33.2,1111122 
TCOON,ioos:station:TCOON:147:1,2012-04-08T05:30:00Z,28.0841,-97.2009,0.0,33.3,1111122 
TCOON,ioos:station:TCOON:147:1,2012-04-08T06:00:00Z,28.0841,-97.2009,0.0,33.4,1111122 
TCOON,ioos:station:TCOON:147:1,2012-04-08T06:30:00Z,28.0841,-97.2009,0.0,33.5,1111122 
TCOON,ioos:station:TCOON:147:1,2012-04-08T07:00:00Z,28.0841,-97.2009,0.0,33.6,1111122 
TCOON,ioos:station:TCOON:147:1,2012-04-08T08:00:00Z,28.0841,-97.2009,0.0,33.8,1111122 
TCOON,ioos:station:TCOON:147:1,2012-04-08T08:30:00Z,28.0841,-97.2009,0.0,33.9,1111122 
TCOON,ioos:station:TCOON:147:1,2012-04-08T09:00:00Z,28.0841,-97.2009,0.0,33.9,1111122 
TCOON,ioos:station:TCOON:147:1,2012-04-08T09:30:00Z,28.0841,-97.2009,0.0,34.0,1111122 
TCOON,ioos:station:TCOON:147:1,2012-04-08T10:00:00Z,28.0841,-97.2009,0.0,34.1,1111122 
TCOON,ioos:station:TCOON:147:1,2012-04-08T11:00:00Z,28.0841,-97.2009,0.0,34.1,1111122 
TCOON,ioos:station:TCOON:147:1,2012-04-08T11:30:00Z,28.0841,-97.2009,0.0,34.1,1111122 
TCOON,ioos:station:TCOON:147:1,2012-04-08T12:00:00Z,28.0841,-97.2009,0.0,34.2,1111122 
TCOON,ioos:station:TCOON:147:1,2012-04-08T12:30:00Z,28.0841,-97.2009,0.0,33.8,1111122 
TCOON,ioos:station:TCOON:147:1,2012-04-08T13:00:00Z,28.0841,-97.2009,0.0,33.2,1111122 
TCOON,ioos:station:TCOON:147:1,2012-04-08T13:30:00Z,28.0841,-97.2009,0.0,33.0,1111122 
TCOON,ioos:station:TCOON:147:1,2012-04-08T14:00:00Z,28.0841,-97.2009,0.0,33.2,1111122 
TCOON,ioos:station:TCOON:147:1,2012-04-08T15:00:00Z,28.0841,-97.2009,0.0,33.1,1111122 
TCOON,ioos:station:TCOON:147:1,2012-04-08T15:30:00Z,28.0841,-97.2009,0.0,33.1,1111122 
TCOON,ioos:station:TCOON:147:1,2012-04-08T16:00:00Z,28.0841,-97.2009,0.0,33.0,1111122 
TCOON,ioos:station:TCOON:147:1,2012-04-08T17:00:00Z,28.0841,-97.2009,0.0,33.0,1111122 
TCOON,ioos:station:TCOON:147:1,2012-04-08T17:30:00Z,28.0841,-97.2009,0.0,32.9,1111122 
TCOON,ioos:station:TCOON:147:1,2012-04-08T18:00:00Z,28.0841,-97.2009,0.0,32.9,1111122 
TCOON,ioos:station:TCOON:147:1,2012-04-08T19:00:00Z,28.0841,-97.2009,0.0,32.9,1111122 
TCOON,ioos:station:TCOON:147:1,2012-04-08T19:30:00Z,28.0841,-97.2009,0.0,32.8,1111122 
TCOON,ioos:station:TCOON:147:1,2012-04-08T20:00:00Z,28.0841,-97.2009,0.0,32.8,1111122 
TCOON,ioos:station:TCOON:147:1,2012-04-08T21:00:00Z,28.0841,-97.2009,0.0,32.6,1111122 
TCOON,ioos:station:TCOON:147:1,2012-04-08T21:30:00Z,28.0841,-97.2009,0.0,32.6,1111122 
TCOON,ioos:station:TCOON:147:1,2012-04-08T22:00:00Z,28.0841,-97.2009,0.0,32.7,1111122 
TCOON,ioos:station:TCOON:147:1,2012-04-08T23:00:00Z,28.0841,-97.2009,0.0,32.6,1111122 
TCOON,ioos:station:TCOON:147:1,2012-04-08T23:30:00Z,28.0841,-97.2009,0.0,32.6,1111122 
TCOON,ioos:station:TCOON:147:1,2012-04-09T00:00:00Z,28.0841,-97.2009,0.0,32.7,1111122 
TCOON,ioos:station:TCOON:147:1,2012-04-09T00:30:00Z,28.0841,-97.2009,0.0,32.6,1111122 
TCOON,ioos:station:TCOON:147:1,2012-04-09T01:00:00Z,28.0841,-97.2009,0.0,32.6,1111122 
TCOON,ioos:station:TCOON:147:1,2012-04-09T01:30:00Z,28.0841,-97.2009,0.0,32.6,1111122 
TCOON,ioos:station:TCOON:147:1,2012-04-09T02:00:00Z,28.0841,-97.2009,0.0,32.6,1111122 
TCOON,ioos:station:TCOON:147:1,2012-04-09T02:30:00Z,28.0841,-97.2009,0.0,32.5,1111122 
TCOON,ioos:station:TCOON:147:1,2012-04-09T03:00:00Z,28.0841,-97.2009,0.0,32.5,1111122 
TCOON,ioos:station:TCOON:147:1,2012-04-09T03:30:00Z,28.0841,-97.2009,0.0,32.5,1111122 
TCOON,ioos:station:TCOON:147:1,2012-04-09T04:00:00Z,28.0841,-97.2009,0.0,32.6,1111122 
TCOON,ioos:station:TCOON:147:1,2012-04-09T04:30:00Z,28.0841,-97.2009,0.0,32.6,1111122 
TCOON,ioos:station:TCOON:147:1,2012-04-09T05:00:00Z,28.0841,-97.2009,0.0,32.6,1111122 
TCOON,ioos:station:TCOON:147:1,2012-04-09T06:00:00Z,28.0841,-97.2009,0.0,32.6,1111122 
TCOON,ioos:station:TCOON:147:1,2012-04-09T06:30:00Z,28.0841,-97.2009,0.0,32.6,1111122 
TCOON,ioos:station:TCOON:147:1,2012-04-09T07:00:00Z,28.0841,-97.2009,0.0,32.6,1111122 
TCOON,ioos:station:TCOON:147:1,2012-04-09T08:00:00Z,28.0841,-97.2009,0.0,32.6,1111122 
TCOON,ioos:station:TCOON:147:1,2012-04-09T08:30:00Z,28.0841,-97.2009,0.0,32.6,1111122 
TCOON,ioos:station:TCOON:147:1,2012-04-09T09:00:00Z,28.0841,-97.2009,0.0,32.6,1111122 
TCOON,ioos:station:TCOON:147:1,2012-04-09T10:00:00Z,28.0841,-97.2009,0.0,31.7,1111122 
TCOON,ioos:station:TCOON:147:1,2012-04-09T11:00:00Z,28.0841,-97.2009,0.0,32.0,1111122 
TCOON,ioos:station:TCOON:147:1,2012-04-09T11:30:00Z,28.0841,-97.2009,0.0,31.9,1111122 
TCOON,ioos:station:TCOON:147:1,2012-04-09T12:00:00Z,28.0841,-97.2009,0.0,31.9,1111122 
TCOON,ioos:station:TCOON:147:1,2012-04-09T12:30:00Z,28.0841,-97.2009,0.0,32.1,1111122 
TCOON,ioos:station:TCOON:147:1,2012-04-09T13:00:00Z,28.0841,-97.2009,0.0,31.8,1111122 
TCOON,ioos:station:TCOON:147:1,2012-04-09T13:30:00Z,28.0841,-97.2009,0.0,32.6,1111122 
TCOON,ioos:station:TCOON:147:1,2012-04-09T14:00:00Z,28.0841,-97.2009,0.0,31.6,1111122 
TCOON,ioos:station:TCOON:147:1,2012-04-09T14:30:00Z,28.0841,-97.2009,0.0,31.9,1111122 